TimeCST,TemperatureF,Dew PointF,Humidity,Sea Level PressureIn,VisibilityMPH,Wind Direction,Wind SpeedMPH,Gust SpeedMPH,PrecipitationIn,Events,Conditions,WindDirDegrees,DateUTC
12:14 AM,6.8,1.4,79,30.02,10.0,NNW,10.4,-,N/A,,Overcast,330,2012-12-13 06:14:00
12:34 AM,6.8,1.4,79,30.02,10.0,NNW,11.5,-,N/A,,Overcast,330,2012-12-13 06:34:00
12:54 AM,6.8,1.4,79,30.02,10.0,NNW,10.4,-,N/A,,Overcast,340,2012-12-13 06:54:00
1:14 AM,6.8,1.4,79,30.03,10.0,NNW,15.0,-,N/A,,Overcast,340,2012-12-13 07:14:00
1:34 AM,5.0,1.4,85,30.03,10.0,NNW,12.7,-,N/A,,Overcast,340,2012-12-13 07:34:00
1:54 AM,5.0,1.4,85,30.03,10.0,North,10.4,-,N/A,,Overcast,350,2012-12-13 07:54:00
2:14 AM,5.0,1.4,85,30.05,10.0,NNW,11.5,-,N/A,,Overcast,340,2012-12-13 08:14:00
2:34 AM,5.0,1.4,85,30.06,10.0,NNW,10.4,-,N/A,,Overcast,340,2012-12-13 08:34:00
2:54 AM,5.0,1.4,85,30.07,10.0,NNW,10.4,-,N/A,,Overcast,330,2012-12-13 08:54:00
3:14 AM,5.0,1.4,85,30.08,10.0,NNW,11.5,-,N/A,,Overcast,330,2012-12-13 09:14:00
3:34 AM,5.0,1.4,85,30.07,10.0,NNW,12.7,-,N/A,,Overcast,340,2012-12-13 09:34:00
3:54 AM,5.0,1.4,85,30.08,10.0,NNW,12.7,-,N/A,,Overcast,340,2012-12-13 09:54:00
4:14 AM,5.0,1.4,85,30.08,10.0,North,10.4,-,N/A,,Overcast,360,2012-12-13 10:14:00
4:34 AM,3.2,-0.4,85,30.08,10.0,North,13.8,-,N/A,,Overcast,350,2012-12-13 10:34:00
4:54 AM,3.2,-0.4,85,30.08,10.0,North,9.2,-,N/A,,Overcast,350,2012-12-13 10:54:00
5:14 AM,1.4,-2.2,85,30.08,10.0,North,10.4,-,N/A,,Mostly Cloudy,350,2012-12-13 11:14:00
5:34 AM,1.4,-2.2,85,30.09,10.0,NNW,10.4,-,N/A,,Scattered Clouds,340,2012-12-13 11:34:00
5:54 AM,1.4,-2.2,85,30.09,10.0,NNW,6.9,-,N/A,,Clear,340,2012-12-13 11:54:00
6:14 AM,-0.4,-4.0,85,30.09,10.0,North,9.2,-,N/A,,Clear,350,2012-12-13 12:14:00
6:34 AM,1.4,-2.2,85,30.10,10.0,NNW,5.8,-,N/A,,Clear,340,2012-12-13 12:34:00
6:54 AM,1.4,-2.2,85,30.10,10.0,NNW,6.9,-,N/A,,Clear,340,2012-12-13 12:54:00
7:14 AM,1.4,-2.2,85,30.10,10.0,NNW,5.8,-,N/A,,Mostly Cloudy,340,2012-12-13 13:14:00
7:34 AM,1.4,-2.2,85,30.12,10.0,NNW,6.9,-,N/A,,Overcast,330,2012-12-13 13:34:00
7:54 AM,3.2,-0.4,85,30.12,10.0,NNW,8.1,-,N/A,,Overcast,340,2012-12-13 13:54:00
8:14 AM,3.2,-0.4,85,30.11,10.0,North,8.1,-,N/A,,Overcast,360,2012-12-13 14:14:00
8:34 AM,3.2,-0.4,85,30.11,10.0,North,5.8,-,N/A,,Scattered Clouds,360,2012-12-13 14:34:00
8:54 AM,3.2,-0.4,85,30.11,10.0,North,5.8,-,N/A,,Clear,10,2012-12-13 14:54:00
9:14 AM,3.2,-0.4,85,30.12,10.0,North,3.5,-,N/A,,Clear,350,2012-12-13 15:14:00
9:34 AM,3.2,-0.4,85,30.12,10.0,NNW,3.5,-,N/A,,Mostly Cloudy,330,2012-12-13 15:34:00
9:53 AM,3.2,-0.4,85,30.13,7.0,Calm,Calm,-,N/A,,Scattered Clouds,0,2012-12-13 15:53:00
10:14 AM,3.2,-0.4,85,30.12,7.0,Calm,Calm,-,N/A,Snow,Light Snow,0,2012-12-13 16:14:00
10:34 AM,5.0,-0.4,78,30.12,10.0,NW,3.5,-,N/A,,Mostly Cloudy,320,2012-12-13 16:34:00
10:53 AM,5.0,-0.4,78,30.12,10.0,Calm,Calm,-,N/A,,Mostly Cloudy,0,2012-12-13 16:53:00
11:14 AM,5.0,1.4,85,30.13,7.0,Calm,Calm,-,N/A,Snow,Light Snow,0,2012-12-13 17:14:00
11:34 AM,6.8,1.4,79,30.12,5.0,Calm,Calm,-,N/A,Snow,Light Snow,0,2012-12-13 17:34:00
11:53 AM,6.8,1.4,79,30.11,7.0,Calm,Calm,-,N/A,Snow,Light Snow,0,2012-12-13 17:53:00
12:14 PM,6.8,1.4,79,30.11,7.0,Calm,Calm,-,N/A,Snow,Light Snow,0,2012-12-13 18:14:00
12:34 PM,6.8,1.4,79,30.11,7.0,Calm,Calm,-,N/A,Snow,Light Snow,0,2012-12-13 18:34:00
12:53 PM,6.8,1.4,79,30.11,5.0,Calm,Calm,-,N/A,Snow,Light Snow,0,2012-12-13 18:53:00
1:14 PM,6.8,1.4,79,30.12,4.0,West,3.5,-,N/A,Snow,Light Snow,270,2012-12-13 19:14:00
1:34 PM,6.8,1.4,79,30.11,4.0,Calm,Calm,-,N/A,Snow,Light Snow,0,2012-12-13 19:34:00
1:54 PM,6.8,3.2,85,30.10,1.8,Calm,Calm,-,N/A,Snow,Light Snow,0,2012-12-13 19:54:00
2:14 PM,6.8,3.2,85,30.11,3.0,Calm,Calm,-,N/A,Snow,Light Snow,0,2012-12-13 20:14:00
2:34 PM,8.6,3.2,79,30.11,5.0,Calm,Calm,-,N/A,Snow,Light Snow,0,2012-12-13 20:34:00
2:54 PM,8.6,3.2,79,30.09,1.8,Calm,Calm,-,N/A,Snow,Light Snow,0,2012-12-13 20:54:00
3:14 PM,8.6,3.2,79,30.09,2.0,Calm,Calm,-,N/A,Snow,Light Snow,0,2012-12-13 21:14:00
3:34 PM,8.6,3.2,79,30.08,10.0,Calm,Calm,-,N/A,,Overcast,0,2012-12-13 21:34:00
3:54 PM,8.6,3.2,79,30.09,10.0,Calm,Calm,-,N/A,,Overcast,0,2012-12-13 21:54:00
4:14 PM,8.6,3.2,79,30.09,10.0,Calm,Calm,-,N/A,,Overcast,0,2012-12-13 22:14:00
4:34 PM,8.6,3.2,79,30.09,10.0,Calm,Calm,-,N/A,,Overcast,0,2012-12-13 22:34:00
5:34 PM,8.6,5.0,85,30.08,10.0,ESE,3.5,-,N/A,,Overcast,120,2012-12-13 23:34:00
6:14 PM,10.4,6.8,85,30.07,10.0,SE,6.9,-,N/A,,Overcast,140,2012-12-14 00:14:00
7:14 PM,10.4,6.8,85,30.06,10.0,SSE,10.4,-,N/A,,Overcast,160,2012-12-14 01:14:00
7:34 PM,12.2,8.6,85,30.06,10.0,South,11.5,-,N/A,,Overcast,170,2012-12-14 01:34:00
7:54 PM,12.2,8.6,85,30.07,10.0,South,8.1,-,N/A,,Overcast,170,2012-12-14 01:54:00
8:14 PM,12.2,8.6,85,30.07,10.0,South,6.9,-,N/A,,Overcast,170,2012-12-14 02:14:00
8:34 PM,12.2,10.4,92,30.06,10.0,South,10.4,-,N/A,,Overcast,170,2012-12-14 02:34:00
8:54 PM,14.0,10.4,86,30.06,10.0,South,10.4,-,N/A,,Overcast,170,2012-12-14 02:54:00
9:14 PM,14.0,10.4,86,30.06,10.0,South,11.5,-,N/A,,Overcast,170,2012-12-14 03:14:00
9:34 PM,14.0,10.4,86,30.06,5.0,South,11.5,-,N/A,,Overcast,170,2012-12-14 03:34:00
9:54 PM,14.0,10.4,86,30.06,5.0,South,13.8,-,N/A,Snow,Light Snow,170,2012-12-14 03:54:00
10:14 PM,15.8,12.2,86,30.06,4.0,South,13.8,-,N/A,,Overcast,170,2012-12-14 04:14:00
10:34 PM,15.8,12.2,86,30.05,5.0,South,12.7,-,N/A,Snow,Light Snow,170,2012-12-14 04:34:00
10:54 PM,15.8,12.2,86,30.06,7.0,South,10.4,-,N/A,,Overcast,170,2012-12-14 04:54:00
11:14 PM,15.8,14.0,93,30.06,4.0,SSE,9.2,-,N/A,,Overcast,160,2012-12-14 05:14:00
11:33 PM,17.6,14.0,86,30.05,10.0,SSE,9.2,-,N/A,,Overcast,160,2012-12-14 05:33:00
11:54 PM,17.6,14.0,86,30.05,7.0,South,10.4,-,N/A,,Overcast,170,2012-12-14 05:54:00